FENGYUN 1C DEB, 30129

Orbit data source: Space-Track

FENGYUN 1C DEB, 30129 is space debris in SSO originally from a launch on Mon, 10 May 1999 UTC launched from the Taiyaun Space Center, China (TSC). Fengyun 1C debris stems from the Chinese weather satellite Fengyun-1C, which was intentionally destroyed by a Chinese anti-satellite missile in 2007. This event dramatically increased the amount of space debris, with thousands of trackable fragments posing hazards to satellites and human spaceflight. The Fengyun 1C debris cloud has become a focal point in discussions about space sustainability and the need for international regulations to prevent the creation of new debris.

Loading next visibility...
Identifier
30129, 1999-025SJ
Orbit
SSO
Country
Flag of CNCN / PRC
Related business
Manufacturer
Unknown
Mission
Spacecraft
Bus & Motor
Unknown
Mass
Unknown
Launch date (UTC)
1999-05-10 (27 years ago)
Launch vehicle
Unknown
Launch site
Taiyaun Space Center, China (TSC)
Object type
Payload
Rocket body
Debris
Shape & HBR
Unknown shape, 0.1 m
Radar Cross Section
Medium (>0.1 m² and <1 m²)

Expand to show TLE details & history
Last TLE update: 1 day ago

TLE from 1 day ago
0 FENGYUN 1C DEB
1 30129U 99025SJ  26207.29264084  .00000635  00000-0  37983-3 0  9999
2 30129  98.0417 127.6491 0183792 168.7609 320.1129 14.01934664996384
Epoch: 2026-07-26T07:01Z
TLE epoch observation values (Epoch: 2026-07-26T07:01:24.168Z)
Latitude
51.87356°
Longitude
-91.37959°
Altitude
794.025 km
Speed
7.514 km/s
True Right ascension
21h 11m 51s
True Declination
51° 42' 26"
Sunlit
Object was in daylight at epoch
Visualization orbit readout
Latitude
Unknown
Longitude
Unknown
Altitude
Unknown
Speed
Unknown
Apparent Right ascension
Unknown
Apparent Declination
Unknown
Sunlit
N/A
Visualization observer readout
Local Sidereal Time
22:50:49
Azimuth
Unknown
Elevation
Unknown
Doppler factor
Unknown
Orbital elements
Apogee altitude
1,017.731 km
Perigee altitude
750.777 km
Semi-major axis
7,262.391 km
Eccentricity
0.01838
Inclination
98.0417°
RAAN
127.6491°
Arg. of periapsis
168.7609°
True anomaly
318.73822°
Mean anomaly
320.1129°
Eccentric anomaly
319.42799°
Mean motion
3.5069 °/min
Orbital period
102.65 mins
BSTAR
0.00037983
Loading maneuver chart data...
Computing Atmospheric mass density...
Loading historical data...
Loading historical data...
Loading historical data...
Loading historical data...
Loading historical data...
Loading historical data...
Loading historical data...

Documentation

Showing up to 5 results
|